Regional Weather Roundup
Issued by NWS

Home | Current Version | Previous Version | Graphics & Text | Print | Product List | Glossary On
Versions: 1 2 3 4 5 6 7 8 9 10 11 12 13 14 15 16 17 18 19 20 21 22 23 24 25 26 27 28 29 30 31 32 33 34 35 36 37 38 39 40 41 42 43 44 45 46 47 48 49 50
000
ASUS44 KMEG 281300
RWRTN
TENNESSEE HOURLY STATE WEATHER ROUNDUP
NATIONAL WEATHER SERVICE MEMPHIS TN
800 AM CDT SAT MAR 28 2015

TNZ002-004-019-021-049-052-054-088>092-281400-
WEST TENNESSEE

CITY           SKY/WX    TMP DP  RH WIND       PRES   REMARKS
MEMPHIS INTL   CLOUDY    38  19  46 E8        30.26R WCI  32
NWS MEMPHIS      N/A     37 N/A N/A MISG        N/A
JACKSON        SUNNY     32  27  81 CALM      30.26R
DYERSBURG      MOSUNNY   34  18  51 NE5       30.28R WCI  30
UNION CITY     SUNNY     28  25  86 NE3       30.26R
PARIS          SUNNY     27  19  74 CALM      30.26R
LEXINGTON      SUNNY     28  21  74 N5        30.24R WCI  23
SAVANNAH       SUNNY     30  27  86 CALM      30.25R
$$

TNZ008-025-027-028-033-062-065-066-281400-
NORTH MIDDLE TENNESSEE

CITY           SKY/WX    TMP DP  RH WIND       PRES   REMARKS
NASHVILLE      PTSUNNY   31  15  52 NE12      30.23R WCI  22
CLARKSVILLE    SUNNY     29  21  72 N5        30.25R WCI  24
COOKEVILLE     MOSUNNY   28  25  86 N5        30.17R WCI  23
CROSSVILLE     CLOUDY    29  20  69 N8        30.12R WCI  21
$$

TNZ061-075-076-078-094-096-097-281400-
SOUTH MIDDLE TENNESSEE

CITY           SKY/WX    TMP DP  RH WIND       PRES   REMARKS
FAYETTEVILLE   SUNNY     28  19  69 N6        30.19R WCI  22
TULLAHOMA      SUNNY     28  18  64 N9        30.19R WCI  20
WINCHESTER     SUNNY     30  19  64 N8        30.19R WCI  23
COLUMBIA       SUNNY     28  28 100 CALM      30.21R
SHELBYVILLE    SUNNY     28  23  80 N7        30.21R WCI  21
$$

TNZ017-018-042-046-047-281400-
NORTHEAST TENNESSEE

CITY           SKY/WX    TMP DP  RH WIND       PRES   REMARKS
TRI CITIES     MOSUNNY   28   9  44 N9        30.10R WCI  19
ELIZABETHTON   CLOUDY    25  10  54 NW8       30.08R WCI  16
$$

TNZ012-013-036-069-073-074-281400-
CENTRAL EAST TENNESSEE

CITY           SKY/WX    TMP DP  RH WIND       PRES   REMARKS
KNOXVILLE      MOSUNNY   33  18  53 N10       30.15R WCI  25
OAK RIDGE      SUNNY     33  16  49 VRB7      30.17R WCI  27
GATLINBURG     MOSUNNY   28  16  59 NW6       30.15R WCI  22
$$

TNZ083-085-099-281400-
SOUTHEAST TENNESSEE

CITY           SKY/WX    TMP DP  RH WIND       PRES   REMARKS
CHATTANOOGA    MOSUNNY   34  17  50 N13       30.18R WCI  25
$$

SKY/WX REPORTED AS FAIR MEANS FEW OR NO CLOUDS BELOW
12 THOUSAND FEET.



USA.gov is the U.S. government's official web portal to all federal, state and local government web resources and services.